Preview of NWS' New Version of Forecast
This preview is not operational and should not be used for support decisions.

Regional Weather Roundup (RWR)

Issued by Eureka, CA (EKA)

                            
000
ASUS46 KEKA 170513
RWREKA
Eureka Area Weather Roundup
National Weather Service Eureka CA
900 PM PST SUN DEC 16 2018

Note: "fair" indicates few or no clouds below 12,000 feet with no
significant weather and/or obstructions to visibility.

Southwest Oregon...
  
CITY           SKY/WX    TMP DP  RH WIND       PRES   REMARKS
MEDFORD        CLOUDY    45  43  93 W3        29.95R FOG              
KLAMATH FALLS  LGT RAIN  40  38  93 SE9       29.94R                  
NORTH BEND     MOCLDY    46  44  93 SE6       29.95R                  
ROSEBURG       FOG       44  44 100 CALM      29.94R VSB 3/4          
SEXTON SUMMIT  NOT AVBL                                               
BROOKINGS      CLOUDY    50  47  89 SE5       29.99R                  

Northwest California...
  
CITY           SKY/WX    TMP DP  RH WIND       PRES   REMARKS
CRESCENT CITY  MOCLDY    51  47  86 S12       29.99R                  
MCKINLEYVILLE  MOCLDY    50  48  93 SE3       29.99R                  
EUREKA         CLOUDY    49  32  52 CALM      30.00R                  
FORTUNA          N/A     48  48 100 SE5       30.00R                  
WEAVERVILLE    CLOUDY    45  45 100 CALM      29.97F                  
TRINITY CENTER CLOUDY    43  41  93 CALM      29.98R                  
UKIAH          CLOUDY    50  48  93 CALM      30.03R                  

North & Central California...
  
CITY           SKY/WX    TMP DP  RH WIND       PRES   REMARKS
YREKA          CLOUDY    41  39  93 CALM      29.95S                  
MOUNT SHASTA   CLOUDY    41  40  96 CALM      29.93F                  
REDDING        RAIN      51  50  96 SE3       29.97R FOG              
RED BLUFF      HVY RAIN  51  49  92 W5        29.99R FOG              
CHICO          CLOUDY    54  54 100 CALM      29.99                   
YUBA CITY      LGT RAIN  55  52  89 SE18G24   30.03R                  
SACRAMENTO     CLOUDY    54  53  97 SE10      30.04R                  
SANTA ROSA     CLOUDY    53  52  96 CALM      30.02R                  
NAPA           LGT RAIN  53  51  93 W9        30.03R                  
SAN FRANCISCO  LGT RAIN  55  54  96 VRB6      30.03R                  
OAKLAND        LGT RAIN  58  55  90 SE12      30.01S                  
SALINAS        LGT RAIN  56  54  93 SE16      30.08F                  
MONTEREY       CLOUDY    58  53  84 E10       30.05F                  

$$